QPF
0.00 0.00 0.00 0.00 0.02 0.00 0.00 0.01 0.00 0.00 0.00 0.00 0.00 0.00 0.00 0.00 0.00 0.00 0.00 0.00 0.00 0.00 0.00 0.00 0.00 0.00 0.00 0.00 0.00 0.00 0.00 0.00 0.00 0.00 0.00 0.00 0.00 0.00 0.00 0.00 0.00 0.00 0.00
0.00 0.02 0.06 0.03 0.03 0.03 0.01 0.02 0.00 0.03 0.02 0.01 0.00 0.01 0.01 0.01 0.01 0.00 0.00 0.00 0.00 0.00 0.00 0.00 0.00 0.00 0.00 0.00 0.00 0.00 0.00 0.00 0.00 0.00 0.00 0.00 0.00 0.00 0.00 0.00 0.00 0.00 0.00
0.15 0.14 0.09 0.05 0.01 0.01 0.02 0.03 0.04 0.10 0.05 0.01 0.00 0.01 0.01 0.02 0.01 0.01 0.01 0.00 0.00 0.00 0.00 0.00 0.00 0.00 0.00 0.00 0.00 0.00 0.00 0.00 0.00 0.00 0.00 0.00 0.00 0.00 0.00 0.00 0.00 0.00 0.00
0.14 0.12 0.07 0.03 0.02 0.01 0.04 0.05 0.09 0.09 0.06 0.03 0.00 0.00 0.00 0.00 0.01 0.01 0.02 0.04 0.04 0.04 0.03 0.02 0.01 0.00 0.00 0.01 0.00 0.00 0.00 0.00 0.00 0.00 0.00 0.00 0.00 0.00 0.00 0.00 0.00 0.00 0.00
0.05 0.03 0.01 0.00 0.01 0.02 0.03 0.03 0.04 0.07 0.08 0.07 0.08 0.09 0.07 0.03 0.01 0.01 0.02 0.05 0.05 0.04 0.04 0.03 0.03 0.03 0.02 0.02 0.02 0.02 0.01 0.00 0.00 0.00 0.00 0.00 0.00 0.00 0.00 0.00 0.00 0.00 0.00
0.00 0.00 0.00 0.00 0.01 0.01 0.01 0.00 0.00 0.02 0.04 0.06 0.07 0.07 0.05 0.03 0.02 0.02 0.02 0.03 0.02 0.01 0.02 0.02 0.03 0.03 0.02 0.01 0.01 0.02 0.02 0.01 0.01 0.00 0.00 0.00 0.00 0.00 0.00 0.00 0.00 0.00 0.00
0.00 0.00 0.00 0.00 0.01 0.01 0.00 0.00 0.00 0.01 0.01 0.01 0.02 0.02 0.03 0.04 0.06 0.03 0.04 0.03 0.03 0.02 0.01 0.00 0.00 0.01 0.01 0.01 0.02 0.02 0.02 0.02 0.01 0.00 0.00 0.00 0.00 0.00 0.00 0.00 0.00 0.00 0.00
0.00 0.00 0.00 0.00 0.00 0.00 0.00 0.00 0.00 0.00 0.00 0.02 0.02 0.03 0.03 0.04 0.01 0.01 0.04 0.06 0.05 0.04 0.03 0.02 0.00 0.00 0.00 0.01 0.01 0.01 0.01 0.00 0.00 0.00 0.00 0.00 0.00 0.01 0.00 0.00 0.00 0.00 0.00
0.00 0.00 0.00 0.00 0.00 0.00 0.00 0.00 0.00 0.00 0.00 0.00 0.00 0.01 0.01 0.01 0.00 0.00 0.01 0.03 0.04 0.06 0.05 0.06 0.04 0.00 0.01 0.04 0.03 0.02 0.01 0.00 0.00 0.00 0.00 0.00 0.00 0.00 0.00 0.00 0.00 0.00 0.00
0.00 0.00 0.00 0.00 0.00 0.00 0.00 0.00 0.00 0.00 0.00 0.00 0.00 0.00 0.00 0.00 0.00 0.00 0.01 0.00 0.03 0.06 0.06 0.04 0.04 0.01 0.00 0.03 0.03 0.02 0.01 0.01 0.00 0.00 0.00 0.00 0.00 0.00 0.00 0.00 0.00 0.00 0.00
0.00 0.00 0.00 0.00 0.00 0.00 0.00 0.00 0.00 0.00 0.00 0.00 0.00 0.00 0.00 0.00 0.00 0.00 0.00 0.01 0.04 0.04 0.02 0.03 0.02 0.01 0.00 0.01 0.01 0.01 0.01 0.00 0.00 0.00 0.00 0.00 0.00 0.00 0.00 0.00 0.00 0.00 0.00
0.00 0.00 0.00 0.00 0.00 0.00 0.00 0.00 0.00 0.00 0.00 0.00 0.00 0.00 0.00 0.00 0.00 0.00 0.00 0.00 0.02 0.03 0.05 0.03 0.02 0.03 0.02 0.03 0.03 0.02 0.00 0.00 0.00 0.00 0.00 0.01 0.00 0.00 0.00 0.00 0.00 0.00 0.00
0.00 0.00 0.00 0.00 0.00 0.00 0.00 0.00 0.00 0.00 0.00 0.00 0.00 0.00 0.00 0.00 0.00 0.00 0.00 0.01 0.02 0.01 0.02 0.02 0.02 0.03 0.02 0.02 0.02 0.01 0.00 0.00 0.00 0.00 0.00 0.01 0.01 0.00 0.00 0.00 0.00 0.00 0.00
0.00 0.00 0.00 0.00 0.00 0.00 0.00 0.00 0.00 0.00 0.00 0.00 0.00 0.00 0.00 0.00 0.00 0.00 0.00 0.00 0.00 0.01 0.04 0.02 0.01 0.02 0.04 0.03 0.01 0.00 0.00 0.00 0.00 0.00 0.01 0.01 0.00 0.00 0.00 0.00 0.00 0.00 0.00
0.00 0.00 0.00 0.00 0.00 0.00 0.00 0.00 0.00 0.00 0.00 0.00 0.00 0.00 0.00 0.00 0.00 0.00 0.00 0.00 0.01 0.02 0.03 0.01 0.01 0.03 0.02 0.02 0.01 0.00 0.00 0.00 0.00 0.00 0.00 0.00 0.00 0.00 0.00 0.00 0.00 0.00 0.01
0.00 0.00 0.00 0.00 0.00 0.00 0.00 0.00 0.00 0.00 0.00 0.00 0.00 0.00 0.00 0.00 0.00 0.00 0.00 0.00 0.01 0.02 0.01 0.01 0.02 0.05 0.02 0.01 0.00 0.00 0.00 0.00 0.00 0.00 0.00 0.00 0.00 0.00 0.00 0.00 0.00 0.00 0.00
0.00 0.00 0.00 0.00 0.00 0.00 0.00 0.00 0.00 0.00 0.00 0.00 0.00 0.00 0.00 0.00 0.00 0.00 0.00 0.01 0.02 0.00 0.00 0.01 0.03 0.04 0.01 0.01 0.01 0.01 0.01 0.00 0.00 0.00 0.00 0.00 0.00 0.00 0.00 0.00 0.00 0.00 0.01
0.00 0.00 0.00 0.00 0.00 0.00 0.00 0.00 0.00 0.00 0.00 0.00 0.00 0.00 0.00 0.00 0.00 0.00 0.00 0.02 0.02 0.00 0.01 0.02 0.02 0.00 0.00 0.00 0.00 0.00 0.00 0.00 0.00 0.00 0.00 0.00 0.00 0.00 0.00 0.00 0.00 0.00 0.01
0.00 0.00 0.00 0.00 0.00 0.00 0.00 0.00 0.00 0.00 0.00 0.00 0.00 0.00 0.00 0.00 0.00 0.00 0.00 0.02 0.02 0.01 0.00 0.00 0.00 0.00 0.00 0.00 0.00 0.00 0.00 0.00 0.00 0.00 0.00 0.00 0.00 0.00 0.00 0.00 0.00 0.00 0.00
0.00 0.00 0.00 0.00 0.00 0.00 0.00 0.00 0.00 0.00 0.00 0.00 0.00 0.00 0.00 0.00 0.00 0.00 0.00 0.01 0.01 0.00 0.00 0.00 0.00 0.00 0.00 0.00 0.00 0.00 0.00 0.00 0.00 0.00 0.00 0.00 0.00 0.00 0.00 0.00 0.00 0.00 0.00
0.00 0.00 0.00 0.00 0.00 0.00 0.00 0.00 0.00 0.00 0.00 0.00 0.00 0.00 0.00 0.00 0.00 0.00 0.00 0.00 0.00 0.00 0.00 0.00 0.00 0.00 0.00 0.00 0.00 0.00 0.00 0.00 0.00 0.00 0.00 0.00 0.00 0.00 0.00 0.00 0.00 0.00 0.00
0.00 0.00 0.00 0.00 0.00 0.00 0.00 0.00 0.00 0.00 0.00 0.00 0.00 0.00 0.00 0.00 0.00 0.00 0.00 0.00 0.00 0.00 0.00 0.00 0.00 0.00 0.00 0.00 0.00 0.00 0.00 0.00 0.00 0.00 0.00 0.00 0.00 0.00 0.00 0.00 0.00 0.00 0.00
0.00 0.00 0.00 0.00 0.00 0.00 0.00 0.00 0.00 0.00 0.00 0.00 0.00 0.00 0.00 0.00 0.00 0.00 0.00 0.00 0.00 0.00 0.00 0.00 0.00 0.00 0.00 0.00 0.00 0.00 0.00 0.00 0.00 0.00 0.00 0.00 0.00 0.00 0.00 0.00 0.00 0.00 0.00
0.00 0.00 0.00 0.00 0.00 0.00 0.00 0.00 0.00 0.00 0.00 0.00 0.00 0.00 0.00 0.00 0.00 0.00 0.00 0.00 0.00 0.00 0.00 0.00 0.00 0.00 0.00 0.00 0.00 0.00 0.00 0.00 0.00 0.00 0.00 0.00 0.00 0.00 0.00 0.00 0.00 0.00 0.00
0.00 0.00 0.01 0.00 0.00 0.00 0.00 0.00 0.00 0.00 0.00 0.00 0.00 0.00 0.00 0.00 0.00 0.00 0.00 0.00 0.00 0.00 0.00 0.00 0.00 0.00 0.00 0.00 0.00 0.00 0.00 0.00 0.00 0.00 0.00 0.00 0.00 0.00 0.00 0.00 0.00 0.00 0.00
0.00 0.00 0.00 0.00 0.00 0.00 0.00 0.00 0.00 0.00 0.00 0.00 0.00 0.00 0.00 0.00 0.00 0.00 0.00 0.00 0.00 0.00 0.00 0.00 0.00 0.00 0.00 0.00 0.00 0.00 0.00 0.00 0.00 0.00 0.00 0.00 0.00 0.00 0.00 0.00 0.00 0.00 0.00
MSLP
1014.56 1015.20 1015.50 1015.72 1015.69 1015.89 1016.16 1016.40 1016.64 1016.77 1016.69 1016.71 1016.81 1017.33 1017.53 1017.65 1017.66 1017.89 1017.90 1018.13 1018.60 1018.87 1018.87 1019.03 1019.25 1019.12 1018.92 1019.14 1019.27 1019.33 1018.92 1018.74 1018.45 1018.21 1018.99 1019.37 1020.05 1019.87 1019.99 1020.20 1020.34 1020.38 1020.23
1015.35 1015.73 1015.36 1016.00 1015.67 1015.51 1015.69 1015.77 1016.11 1016.22 1016.37 1016.40 1016.52 1016.73 1016.86 1017.06 1017.33 1017.43 1017.44 1017.31 1017.61 1018.04 1018.11 1018.35 1018.45 1018.71 1018.85 1018.84 1018.89 1018.74 1018.80 1018.85 1019.01 1018.78 1018.96 1019.43 1019.90 1020.10 1020.30 1020.48 1020.42 1020.25 1020.03
1016.34 1015.17 1015.22 1015.67 1015.70 1015.08 1015.22 1015.37 1015.54 1015.89 1015.89 1015.98 1015.95 1016.05 1016.11 1016.37 1016.69 1016.75 1016.76 1016.86 1017.11 1017.21 1017.37 1017.70 1017.73 1017.97 1018.34 1018.22 1018.55 1018.73 1018.72 1018.73 1018.85 1019.06 1019.16 1019.43 1019.54 1019.94 1020.33 1020.55 1020.52 1020.30 1019.99
1014.78 1014.61 1014.18 1015.43 1015.43 1014.95 1015.01 1015.10 1015.18 1015.51 1015.45 1015.33 1015.56 1015.53 1015.71 1016.00 1016.17 1016.23 1016.42 1016.49 1016.53 1016.62 1016.74 1017.02 1017.13 1017.37 1017.53 1017.61 1017.99 1018.26 1018.56 1018.50 1019.19 1018.97 1019.10 1019.32 1019.53 1019.86 1020.12 1020.34 1020.00 1019.93 1019.71
1014.75 1014.45 1014.50 1014.86 1014.79 1014.83 1014.94 1015.01 1015.00 1015.10 1015.03 1014.91 1014.99 1015.18 1015.48 1015.52 1015.71 1015.60 1015.79 1015.84 1015.95 1015.98 1016.03 1016.10 1016.25 1016.40 1016.33 1016.86 1017.13 1017.36 1017.80 1017.97 1018.41 1018.54 1018.64 1018.95 1019.16 1019.53 1019.68 1019.57 1019.85 1019.86 1019.48
1014.93 1014.44 1014.43 1014.53 1014.62 1014.74 1014.82 1014.87 1014.87 1014.80 1014.69 1014.70 1014.75 1014.70 1014.85 1014.99 1014.99 1015.28 1015.45 1015.20 1015.00 1015.00 1014.92 1015.13 1015.26 1015.58 1015.52 1015.72 1015.82 1016.09 1016.40 1016.73 1017.12 1017.34 1017.65 1018.08 1018.21 1018.63 1018.93 1019.19 1019.38 1019.36 1019.06
1014.39 1014.48 1014.60 1014.76 1014.90 1015.06 1015.14 1015.13 1015.07 1014.94 1014.98 1014.83 1014.61 1014.45 1014.47 1014.52 1014.66 1014.90 1014.84 1014.86 1014.46 1014.40 1014.33 1014.32 1014.37 1014.49 1014.61 1014.53 1014.84 1015.14 1015.32 1015.67 1015.90 1016.26 1016.83 1017.15 1017.53 1017.79 1018.36 1018.79 1019.05 1019.09 1018.76
1014.76 1014.92 1015.08 1015.21 1015.26 1015.41 1015.41 1015.48 1015.25 1015.38 1014.95 1014.97 1014.77 1014.41 1014.32 1014.36 1014.26 1014.30 1014.23 1014.36 1014.13 1013.85 1013.82 1013.65 1013.77 1013.61 1013.55 1013.74 1014.00 1014.10 1014.37 1014.74 1015.12 1015.40 1015.98 1016.44 1016.76 1016.89 1017.23 1017.87 1018.41 1018.51 1018.34
1015.13 1015.30 1015.46 1015.55 1015.60 1015.52 1015.42 1015.38 1015.53 1015.32 1015.44 1014.88 1014.74 1014.53 1013.93 1013.70 1013.83 1013.99 1014.07 1013.65 1013.49 1013.35 1013.09 1012.81 1012.68 1012.93 1013.08 1013.27 1013.45 1013.49 1013.73 1014.09 1014.23 1014.87 1015.41 1015.97 1016.38 1016.72 1017.21 1017.95 1018.03 1017.88 1017.35
1015.63 1015.77 1015.88 1015.91 1015.78 1015.58 1015.47 1015.40 1015.46 1015.25 1014.98 1014.61 1014.29 1014.11 1013.82 1013.79 1013.51 1013.23 1013.25 1013.22 1012.40 1011.96 1012.22 1012.22 1012.18 1012.44 1012.62 1012.82 1013.08 1013.01 1013.35 1013.26 1013.86 1014.56 1015.23 1015.59 1016.03 1016.31 1016.76 1016.82 1016.33 1016.06 1016.09
1015.94 1015.94 1015.90 1015.84 1015.75 1015.68 1015.58 1015.50 1015.40 1015.20 1014.90 1014.49 1014.03 1013.60 1013.28 1012.99 1012.73 1012.67 1012.72 1012.78 1011.73 1011.37 1011.42 1011.35 1011.50 1011.87 1011.76 1011.92 1012.46 1012.56 1012.47 1013.13 1013.25 1013.81 1014.34 1014.82 1015.29 1015.43 1015.58 1016.03 1015.72 1015.58 1015.48
1015.93 1015.86 1015.79 1015.79 1015.73 1015.50 1015.46 1015.28 1015.09 1014.81 1014.40 1014.00 1013.54 1013.05 1012.56 1012.40 1012.28 1012.18 1012.04 1012.06 1011.60 1011.03 1010.40 1010.60 1010.83 1011.21 1011.47 1011.55 1011.83 1012.07 1012.37 1012.64 1013.06 1013.57 1013.67 1013.78 1013.76 1014.03 1014.43 1014.81 1015.17 1015.43 1015.44
1015.72 1015.58 1015.48 1015.42 1015.28 1015.29 1015.24 1014.97 1014.62 1014.35 1014.07 1013.69 1013.16 1012.61 1012.20 1011.94 1011.77 1011.50 1011.52 1011.55 1011.43 1011.33 1010.53 1010.33 1011.00 1011.06 1011.39 1011.62 1011.51 1011.86 1012.12 1012.32 1012.91 1013.12 1012.79 1012.45 1012.84 1013.29 1013.65 1014.41 1014.84 1015.24 1015.68
1015.41 1015.31 1015.21 1015.15 1014.98 1014.89 1014.74 1014.44 1014.27 1013.95 1013.74 1013.44 1013.07 1012.62 1012.19 1011.95 1011.60 1011.31 1011.40 1011.25 1011.17 1011.29 1010.96 1010.56 1010.70 1010.83 1011.18 1011.36 1011.70 1011.87 1012.10 1012.21 1012.68 1012.55 1011.98 1012.00 1012.27 1013.06 1013.59 1013.66 1013.90 1014.46 1014.73
1015.21 1015.07 1014.88 1014.56 1014.54 1014.45 1014.34 1014.20 1013.98 1013.86 1013.72 1013.67 1013.26 1012.80 1012.46 1012.12 1011.86 1012.61 1012.65 1012.02 1011.58 1011.09 1010.77 1010.29 1010.34 1010.55 1010.69 1011.03 1011.32 1011.46 1012.03 1012.28 1012.40 1011.93 1011.59 1011.63 1011.99 1012.59 1012.76 1013.15 1013.48 1013.75 1013.92
1015.07 1014.80 1014.52 1014.41 1014.21 1014.05 1013.87 1013.58 1013.63 1013.47 1013.28 1013.37 1013.15 1013.11 1012.41 1012.70 1012.59 1012.28 1012.10 1011.80 1011.31 1010.98 1010.68 1010.17 1009.99 1010.16 1010.26 1010.47 1010.82 1011.32 1011.78 1011.93 1011.43 1011.42 1011.46 1011.45 1011.62 1012.06 1012.32 1013.01 1013.09 1013.22 1013.45
1014.86 1014.67 1014.47 1014.41 1014.13 1013.91 1013.56 1013.24 1012.75 1012.50 1012.54 1012.30 1012.18 1012.35 1012.64 1012.33 1012.31 1012.25 1011.81 1011.41 1010.83 1010.54 1010.50 1010.08 1009.90 1009.86 1009.98 1010.34 1010.59 1010.88 1011.06 1010.92 1010.97 1011.09 1011.15 1011.23 1011.52 1011.82 1012.32 1012.43 1012.75 1013.00 1013.27
1014.75 1014.76 1014.59 1014.32 1014.13 1013.76 1013.40 1013.06 1012.69 1012.15 1011.66 1011.49 1011.62 1011.95 1012.01 1012.00 1011.94 1011.73 1011.33 1011.08 1010.62 1010.43 1010.29 1009.95 1009.85 1009.80 1010.01 1010.19 1010.60 1010.76 1010.63 1011.01 1011.06 1011.02 1011.14 1011.41 1011.61 1011.70 1012.02 1012.24 1012.53 1013.01 1013.76
1014.81 1014.67 1014.54 1014.31 1014.07 1013.89 1013.39 1012.85 1012.32 1011.96 1011.82 1011.46 1011.32 1011.33 1011.52 1011.69 1011.57 1011.31 1011.06 1010.86 1010.42 1010.44 1010.22 1010.19 1010.19 1010.29 1010.39 1010.38 1010.33 1010.32 1010.62 1011.03 1011.09 1011.29 1011.53 1011.66 1011.84 1011.90 1012.19 1012.47 1012.90 1013.75 1014.12
1014.71 1015.09 1015.11 1014.50 1013.92 1013.42 1013.05 1012.64 1012.27 1012.07 1011.82 1011.47 1011.39 1011.30 1011.29 1011.33 1010.98 1010.97 1010.94 1010.81 1010.89 1010.80 1010.75 1010.47 1010.50 1010.41 1010.10 1010.28 1010.39 1010.64 1011.02 1011.30 1011.58 1011.68 1011.95 1012.20 1012.43 1012.42 1012.55 1012.95 1013.35 1013.58 1014.08
1014.92 1014.69 1014.95 1014.33 1013.74 1013.41 1013.33 1012.98 1012.61 1012.28 1012.03 1011.67 1011.47 1011.57 1011.89 1011.66 1011.19 1011.35 1011.31 1011.43 1011.21 1011.23 1010.98 1010.80 1010.47 1010.56 1010.79 1010.95 1010.99 1011.23 1011.65 1011.71 1011.91 1012.20 1012.49 1012.71 1012.78 1012.84 1013.15 1013.45 1013.74 1014.51 1014.86
1014.87 1014.52 1014.40 1014.04 1013.68 1013.78 1013.56 1013.03 1012.58 1012.26 1011.93 1011.76 1011.70 1011.58 1011.72 1011.49 1011.79 1011.89 1011.77 1011.62 1011.57 1011.47 1011.32 1011.28 1011.36 1011.60 1011.72 1011.69 1011.64 1011.61 1011.80 1012.07 1012.48 1012.75 1012.95 1013.07 1013.33 1013.43 1013.52 1013.64 1013.87 1014.22 1014.45
1014.56 1014.37 1013.99 1013.79 1014.11 1013.93 1013.52 1013.53 1013.09 1012.63 1012.33 1012.03 1011.84 1011.82 1011.92 1012.23 1012.31 1012.37 1012.44 1012.14 1012.01 1012.18 1012.22 1012.20 1012.23 1012.35 1012.49 1012.59 1012.61 1012.40 1012.38 1012.79 1013.07 1013.27 1013.47 1013.65 1013.59 1013.75 1013.90 1014.15 1014.42 1014.46 1014.70
1014.75 1014.19 1013.92 1014.31 1014.44 1014.09 1014.00 1014.04 1013.81 1013.48 1013.11 1012.80 1012.62 1012.65 1012.87 1013.03 1012.78 1012.50 1012.50 1012.71 1012.91 1013.07 1013.12 1013.15 1013.21 1013.31 1013.23 1013.19 1013.20 1013.27 1013.52 1013.58 1013.80 1014.22 1014.00 1014.05 1014.50 1014.70 1014.97 1014.77 1014.58 1014.76 1014.90
1014.00 1013.93 1014.16 1014.60 1014.60 1014.30 1014.18 1014.18 1013.99 1013.91 1013.89 1013.77 1013.67 1013.31 1013.18 1012.85 1012.60 1012.77 1012.98 1013.27 1013.51 1013.71 1013.79 1013.85 1013.89 1014.00 1014.08 1014.12 1014.24 1014.47 1015.09 1014.99 1014.65 1014.94 1014.69 1014.84 1014.90 1015.01 1015.03 1015.04 1015.04 1015.09 1015.15
1013.82 1014.09 1014.68 1014.72 1014.64 1014.33 1014.23 1014.14 1014.03 1013.87 1013.65 1013.54 1013.47 1013.31 1013.31 1013.20 1013.13 1013.31 1013.58 1013.82 1014.06 1014.26 1014.36 1014.58 1014.77 1014.85 1014.84 1015.04 1015.48 1015.90 1015.98 1015.86 1015.64 1015.70 1015.14 1015.06 1014.88 1014.46 1014.34 1014.52 1014.64 1014.56 1014.55
Thickness
5707 5698 5692 5687 5686 5682 5677 5671 5665 5660 5656 5652 5647 5640 5636 5633 5630 5626 5624 5620 5614 5609 5607 5604 5599 5598 5598 5593 5588 5584 5584 5583 5580 5582 5573 5567 5559 5557 5552 5547 5542 5539 5535
5688 5677 5671 5674 5677 5675 5671 5668 5660 5653 5649 5644 5640 5634 5631 5626 5621 5618 5617 5616 5611 5605 5602 5598 5595 5590 5586 5584 5581 5579 5575 5573 5570 5566 5564 5557 5552 5548 5543 5538 5535 5531 5528
5663 5671 5668 5666 5665 5667 5663 5660 5653 5644 5640 5635 5633 5628 5625 5620 5615 5612 5610 5608 5604 5601 5597 5591 5589 5584 5578 5577 5572 5569 5566 5564 5561 5557 5553 5549 5547 5540 5534 5528 5525 5521 5518
5658 5671 5674 5661 5654 5656 5652 5646 5639 5633 5631 5629 5623 5621 5617 5612 5608 5605 5601 5598 5596 5593 5590 5585 5581 5577 5573 5571 5566 5562 5557 5557 5548 5547 5545 5540 5536 5530 5525 5519 5520 5514 5511
5672 5667 5659 5649 5647 5642 5637 5634 5632 5628 5624 5622 5617 5612 5607 5603 5599 5598 5596 5593 5589 5586 5582 5580 5577 5574 5571 5565 5561 5558 5553 5549 5544 5541 5538 5533 5528 5522 5517 5518 5509 5505 5503
5656 5654 5649 5643 5638 5633 5629 5624 5621 5618 5615 5611 5607 5603 5598 5594 5592 5586 5583 5584 5584 5581 5579 5577 5573 5568 5568 5564 5561 5558 5553 5549 5544 5540 5537 5530 5527 5520 5516 5509 5504 5501 5497
5652 5646 5640 5633 5626 5620 5614 5609 5605 5601 5597 5594 5592 5590 5588 5585 5580 5574 5573 5574 5575 5572 5571 5569 5568 5565 5561 5562 5557 5554 5551 5546 5543 5538 5531 5527 5521 5517 5509 5499 5494 5490 5488
5639 5632 5625 5618 5611 5605 5599 5591 5587 5581 5580 5577 5575 5576 5574 5572 5568 5564 5562 5561 5562 5563 5561 5561 5558 5559 5558 5555 5552 5551 5548 5543 5537 5533 5526 5521 5517 5513 5507 5502 5493 5488 5485
5622 5616 5609 5602 5596 5591 5585 5579 5571 5569 5562 5563 5560 5558 5560 5561 5556 5551 5548 5552 5551 5552 5553 5554 5553 5550 5549 5545 5544 5543 5540 5535 5533 5525 5520 5514 5510 5506 5499 5490 5485 5483 5484
5602 5595 5589 5583 5578 5574 5569 5564 5559 5555 5552 5550 5547 5545 5543 5540 5540 5539 5534 5536 5545 5546 5544 5543 5539 5538 5537 5535 5534 5535 5532 5528 5521 5517 5511 5507 5503 5499 5493 5489 5490 5489 5484
5585 5580 5574 5569 5564 5558 5552 5547 5542 5538 5536 5533 5532 5530 5528 5526 5525 5520 5515 5516 5527 5532 5532 5531 5528 5524 5526 5527 5524 5526 5527 5521 5520 5513 5508 5503 5496 5495 5492 5485 5484 5482 5478
5572 5566 5561 5554 5547 5543 5537 5531 5526 5521 5519 5516 5514 5513 5513 5510 5508 5505 5500 5498 5503 5511 5519 5516 5513 5511 5513 5516 5515 5515 5513 5511 5509 5503 5502 5501 5499 5497 5490 5484 5478 5472 5468
5560 5555 5549 5542 5535 5529 5521 5516 5513 5509 5506 5504 5504 5504 5504 5502 5500 5497 5491 5487 5486 5487 5496 5497 5490 5492 5494 5500 5506 5500 5502 5504 5497 5495 5499 5503 5497 5491 5485 5476 5471 5464 5458
5548 5540 5533 5526 5520 5515 5511 5508 5504 5502 5499 5497 5495 5494 5493 5489 5488 5488 5485 5483 5478 5474 5476 5479 5478 5478 5479 5483 5487 5491 5492 5492 5488 5490 5496 5496 5493 5483 5475 5473 5469 5463 5458
5532 5526 5522 5520 5514 5509 5505 5501 5498 5493 5488 5486 5484 5483 5480 5479 5479 5465 5462 5466 5467 5469 5470 5473 5471 5471 5472 5472 5478 5479 5477 5480 5482 5486 5490 5490 5485 5474 5472 5467 5463 5459 5457
5520 5518 5516 5511 5508 5504 5501 5499 5491 5483 5479 5472 5470 5467 5472 5464 5460 5458 5456 5456 5458 5460 5465 5469 5469 5467 5467 5468 5471 5472 5473 5473 5482 5483 5483 5482 5477 5471 5467 5459 5458 5456 5453
5512 5509 5507 5501 5499 5495 5494 5492 5492 5488 5478 5475 5469 5463 5458 5457 5453 5450 5449 5450 5455 5457 5461 5464 5463 5464 5466 5466 5468 5469 5471 5478 5479 5478 5476 5474 5469 5464 5457 5457 5452 5449 5446
5504 5497 5496 5494 5491 5490 5488 5487 5485 5484 5484 5480 5471 5461 5457 5452 5448 5447 5448 5446 5455 5455 5457 5460 5460 5462 5464 5463 5464 5468 5473 5471 5471 5470 5468 5463 5459 5458 5453 5449 5445 5438 5430
5495 5491 5487 5485 5483 5479 5481 5481 5482 5480 5477 5476 5472 5465 5457 5449 5446 5445 5445 5451 5455 5453 5454 5457 5459 5460 5460 5464 5467 5469 5468 5466 5463 5460 5456 5454 5450 5448 5442 5436 5430 5414 5413
5483 5473 5469 5473 5477 5478 5478 5478 5478 5475 5473 5471 5468 5465 5459 5455 5457 5453 5450 5451 5451 5451 5453 5458 5458 5458 5463 5463 5463 5462 5459 5456 5453 5452 5448 5444 5438 5435 5431 5423 5416 5411 5405
5469 5466 5459 5468 5472 5472 5469 5469 5469 5468 5467 5467 5466 5462 5452 5456 5458 5453 5452 5448 5451 5451 5454 5456 5458 5457 5455 5455 5455 5453 5449 5450 5448 5444 5439 5434 5430 5425 5418 5412 5406 5395 5390
5457 5455 5457 5462 5465 5461 5462 5466 5467 5466 5465 5463 5462 5461 5456 5459 5455 5453 5454 5454 5454 5454 5454 5454 5451 5448 5447 5448 5449 5450 5448 5446 5441 5438 5433 5428 5420 5416 5412 5408 5405 5401 5400
5449 5448 5455 5459 5455 5456 5461 5457 5457 5458 5459 5460 5460 5458 5456 5453 5452 5452 5450 5452 5452 5449 5447 5446 5444 5443 5441 5441 5440 5442 5444 5440 5437 5433 5428 5421 5417 5412 5409 5406 5403 5404 5405
5454 5456 5459 5454 5451 5456 5455 5450 5450 5449 5452 5454 5454 5453 5450 5448 5450 5452 5450 5447 5444 5441 5439 5438 5437 5436 5436 5437 5437 5438 5437 5436 5432 5426 5425 5420 5411 5406 5403 5406 5409 5409 5411
5467 5464 5460 5453 5452 5454 5454 5451 5451 5449 5446 5446 5445 5448 5449 5451 5452 5450 5446 5442 5438 5435 5433 5432 5432 5431 5431 5432 5433 5433 5431 5430 5429 5425 5423 5418 5413 5410 5410 5411 5412 5413 5415
5472 5466 5456 5455 5455 5456 5454 5453 5452 5451 5451 5449 5447 5447 5446 5446 5446 5444 5440 5437 5433 5431 5430 5428 5427 5427 5429 5429 5429 5428 5428 5428 5427 5426 5426 5424 5424 5426 5427 5426 5426 5428 5431